Regional Weather Roundup
Issued by NWS

Home | Current Version | Previous Version | Graphics & Text | Print | Product List | Glossary On
Versions: 1 2 3 4 5 6 7 8 9 10 11 12 13 14 15 16 17 18 19 20 21 22 23 24 25 26 27 28 29 30 31 32 33 34 35 36 37 38 39 40 41 42 43 44 45 46 47 48 49 50
000
ASUS43 KBIS 152020
RWRND

NORTH DAKOTA REGIONAL WEATHER ROUNDUP
NATIONAL WEATHER SERVICE BISMARCK ND
300 PM CDT MON SEP 15 2014

NOTE: "FAIR" INDICATES FEW OR NO CLOUDS BELOW 12,000 FEET WITH NO
SIGNIFICANT WEATHER AND/OR OBSTRUCTIONS TO VISIBILITY.


NDZ001>003-009>011-017-152100-
NORTHWEST NORTH DAKOTA

CITY           SKY/WX    TMP DP  RH WIND       PRES   REMARKS
WILLISTON      SUNNY     66  31  27 S6        30.15F
MINOT          SUNNY     66  34  30 W13       30.14F
MINOT AFB      SUNNY     66  36  32 W10       30.13F
$$

NDZ018>021-031>035-040>046-152100-
SOUTHWEST NORTH DAKOTA

CITY           SKY/WX    TMP DP  RH WIND       PRES   REMARKS
BISMARCK       SUNNY     68  36  30 SW12      30.20F
DICKINSON      SUNNY     64  37  36 S6        30.16F
GARRISON         N/A     66  36  32 SW12G21   30.17F
HETTINGER ARPT SUNNY     63  37  38 VRB6      30.21F
$$

NDZ004>008-012>016-024-026-027-054-152100-
NORTHEAST NORTH DAKOTA

CITY           SKY/WX    TMP DP  RH WIND       PRES   REMARKS
GRAND FORKS    MOSUNNY   66  38  35 W12       30.15F
GRND FRKS AFB  PTSUNNY   67  38  34 W14G20    30.16F
DEVILS LAKE    SUNNY     66  37  34 W15       30.13F
$$

NDZ022-023-025-028>030-036>039-047>053-152100-
SOUTHEAST NORTH DAKOTA

CITY           SKY/WX    TMP DP  RH WIND       PRES   REMARKS
FARGO          MOSUNNY   64  35  34 W8        30.20F
JAMESTOWN      MOSUNNY   63  38  39 NW14      30.19F
$$




USA.gov is the U.S. government's official web portal to all federal, state and local government web resources and services.